Find Starlink 11587

NORAD ID: 63310 Int'l Des: 2025-057 Owner: SPXS Country: US Constellation: starlink operational
又名: STARLINK-11587 [DTC] celestrak
LEOCIRCULAR

当前视图

正在加载3D地球...

About Starlink 11587

Starlink 11587 (NORAD 63310) is a starlink constellation satellite (v2 mini d2c) launched Mar 18, 2025 by SPXS of US. It operates in LEO, CIRCULAR orbit with a mass of 960.00 kg.

即将过境

Passes for default location (London). Set your location on the main map for personalized predictions.

高度历史

Loading altitude history...

两行轨道根数

1 63310U 25057D 26264.14360282 .00141210 00000-0 10795-2 0 9991
2 63310 43.0018 166.7413 0004761 266.9488 93.0835 15.70959896 87912
Epoch: Sep 21, 2026 • Age: 21 hours

当前状态

高度 358.6 km
远地点 / 近地点 N/A
速度 7.70 km/s
星下点 -20.54°S, 1.59°E
发射日期 Mar 18, 2025
运行时间 1.5 years
类型 internet

技术详情

分类 Payload
质量 960.00 kg
干质量 910.00 kg
长度 0.30 m
跨度 29.00 m
形状 ? Box + pan
制造商 SPXS
平台类型 Starlink V2MD
阶段状态 In Orbit
所有者/国家 SPXS/US

Most Searched